GFSGBSN_prec_kuchsnow_192.txt.gz
Snowfall_Accumulation
0.0 0.0 0.0 0.0 0.0 0.0 0.0 0.0 0.0 0.0 0.0 0.0 0.0 0.0 0.0 0.0 0.0 0.0 0.0 0.0 0.0 0.0 0.0 0.0 0.0 0.0 0.0 0.0 0.0 0.0 0.0 0.0 0.0 0.0 0.0 0.0 0.0 0.0 0.0 0.0 0.0 0.0 0.0 0.0 0.0 0.0 0.0
0.0 0.0 0.0 0.0 0.0 0.0 0.0 0.0 0.0 0.0 0.0 0.0 0.0 0.0 0.0 0.0 0.0 0.0 0.0 0.0 0.0 0.0 0.0 0.0 0.0 0.0 0.0 0.0 0.0 0.0 0.0 0.0 0.0 0.0 0.0 0.0 0.0 0.0 0.0 0.0 0.0 0.0 0.0 0.0 0.0 0.0 0.0
0.0 0.0 0.0 0.0 0.0 0.0 0.0 0.0 0.0 0.0 0.0 0.0 0.0 0.0 0.0 0.0 0.0 0.0 0.0 0.0 0.0 0.0 0.0 0.0 0.0 0.0 0.0 0.0 0.0 0.0 0.0 0.0 0.0 0.0 0.0 0.0 0.0 0.0 0.0 0.0 0.0 0.0 0.0 0.0 0.0 0.0 0.0
0.0 0.0 0.0 0.0 0.0 0.0 0.0 0.0 0.0 0.0 0.0 0.0 0.0 0.0 0.0 0.0 0.0 0.0 0.0 0.0 0.0 0.0 0.0 0.0 0.0 0.0 0.0 0.0 0.0 0.0 0.0 0.0 0.0 0.0 0.0 0.0 0.0 0.0 0.0 0.0 0.0 0.0 0.0 0.0 0.0 0.0 0.0
0.0 0.0 0.0 0.0 0.0 0.0 0.0 0.0 0.0 0.0 0.0 0.0 0.0 0.0 0.0 0.0 0.0 0.0 0.0 0.0 0.0 0.0 0.0 0.0 0.0 0.0 0.0 0.0 0.0 0.0 0.0 0.0 0.0 0.0 0.0 0.0 0.0 0.0 0.0 0.0 0.0 0.0 0.0 0.0 0.0 0.0 0.0
0.0 0.0 0.0 0.0 0.0 0.0 0.0 0.0 0.0 0.0 0.0 0.0 0.0 0.0 0.0 0.0 0.0 0.0 0.0 0.0 0.0 0.0 0.0 0.0 0.0 0.0 0.0 0.0 0.0 0.0 0.0 0.0 0.0 0.0 0.0 0.0 0.0 0.0 0.0 0.0 0.0 0.0 0.0 0.0 0.0 0.0 0.0
0.0 0.0 0.0 0.0 0.0 0.0 0.0 0.0 0.0 0.0 0.0 0.0 0.0 0.0 0.0 0.0 0.0 0.0 0.0 0.0 0.0 0.0 0.0 0.0 0.0 0.0 0.0 0.0 0.0 0.0 0.0 0.0 0.0 0.0 0.0 0.0 0.0 0.0 0.0 0.0 0.0 0.0 0.0 0.0 0.0 0.0 0.0
0.0 0.0 0.0 0.0 0.0 0.0 0.0 0.0 0.0 0.0 0.0 0.0 0.0 0.0 0.0 0.0 0.0 0.0 0.0 0.0 0.0 0.0 0.0 0.0 0.0 0.0 0.0 0.0 0.0 0.0 0.0 0.0 0.0 0.0 0.0 0.0 0.0 0.0 0.0 0.0 0.0 0.0 0.0 0.0 0.0 0.0 0.0
0.0 0.0 0.0 0.0 0.0 0.0 0.0 0.0 0.0 0.0 0.0 0.0 0.0 0.0 0.0 0.0 0.0 0.0 0.0 0.0 0.0 0.0 0.0 0.0 0.0 0.0 0.0 0.0 0.0 0.0 0.0 0.0 0.0 0.0 0.0 0.0 0.0 0.0 0.0 0.0 0.0 0.0 0.0 0.0 0.0 0.0 0.0
0.0 0.0 0.0 0.0 0.0 0.0 0.0 0.0 0.0 0.0 0.0 0.0 0.0 0.0 0.0 0.0 0.0 0.0 0.0 0.0 0.0 0.0 0.5 0.0 0.0 0.0 0.0 0.0 0.0 0.0 0.0 0.0 0.0 0.0 0.0 0.0 0.0 0.0 0.0 0.0 0.0 0.0 0.0 0.0 0.0 0.0 0.8
0.0 0.0 0.0 0.0 0.0 0.0 0.0 0.0 0.0 0.0 0.0 0.0 0.0 0.0 0.0 0.0 0.0 0.0 0.0 0.0 0.0 0.0 19.3 0.0 0.0 0.0 0.0 0.0 0.0 0.0 0.0 0.0 0.0 0.0 0.0 0.0 0.0 0.0 0.0 0.0 0.0 0.0 0.0 0.0 0.0 0.0 0.0
0.0 0.0 0.0 0.0 0.0 0.0 0.0 0.0 0.0 0.0 0.0 0.0 0.0 0.0 0.0 0.0 0.0 0.0 0.0 0.0 0.0 1.7 22.2 0.0 0.0 0.0 0.0 0.0 0.0 0.0 0.0 0.0 0.0 0.0 0.0 0.0 0.0 0.0 0.0 0.0 0.0 0.0 0.0 0.0 0.0 0.0 2.1
0.0 0.0 0.0 0.0 0.0 0.0 0.0 0.0 0.0 0.0 0.0 0.0 0.0 0.0 0.0 0.0 0.0 0.0 0.0 0.0 16.2 28.4 0.0 0.0 0.0 0.0 0.0 0.0 0.0 0.0 0.0 0.0 0.3 0.1 0.0 0.0 0.0 0.0 0.0 0.0 0.0 0.0 0.0 2.7 3.6 3.8 0.8
0.0 0.0 0.0 0.0 0.0 0.0 0.0 0.0 0.0 0.0 0.0 0.0 0.0 0.0 0.0 0.0 0.0 0.0 0.0 0.2 46.6 2.0 0.0 0.0 0.0 0.0 0.4 0.2 0.0 0.0 0.0 0.0 0.0 0.0 0.1 0.1 1.5 0.0 0.0 0.0 0.0 0.1 0.0 0.7 7.8 6.0 1.8
0.0 0.0 0.0 0.0 0.0 0.0 0.0 0.0 0.0 0.0 0.0 0.0 0.0 0.0 0.0 0.0 0.0 0.0 0.0 40.5 11.8 0.6 0.0 0.1 0.0 0.0 0.8 0.5 0.7 0.6 0.0 0.2 0.0 0.0 1.3 1.3 3.0 0.0 0.0 0.0 0.0 0.0 0.0 0.0 3.1 0.9 5.7
0.0 0.0 0.0 0.0 0.0 0.0 0.0 0.0 0.0 0.0 0.0 0.0 0.0 0.0 0.0 0.0 0.0 0.0 10.8 22.2 3.8 0.0 0.0 0.1 3.8 2.1 3.4 0.2 1.5 0.1 0.0 0.0 0.0 0.0 0.0 1.1 8.7 0.0 0.0 0.0 0.0 0.0 0.0 1.5 4.2 19.9 15.4
0.0 0.0 0.0 0.0 0.0 0.0 0.0 0.0 0.0 0.0 0.0 0.0 0.0 0.7 0.0 0.0 0.0 1.2 43.1 12.2 1.1 0.0 0.0 1.4 6.4 5.8 3.3 5.1 2.2 2.5 0.9 0.0 0.0 0.0 0.0 0.0 6.1 0.0 0.0 0.0 0.0 0.0 0.0 0.2 0.2 1.5 10.8
0.0 0.0 0.0 0.0 0.0 0.0 0.0 0.0 0.0 0.0 0.0 0.0 0.0 17.1 0.0 0.0 9.8 23.4 17.6 3.5 0.0 0.0 0.0 0.8 2.1 4.4 6.6 5.6 6.8 9.9 4.9 0.3 0.0 0.4 0.2 0.0 3.3 3.6 0.7 0.0 0.0 0.0 0.0 0.1 6.2 5.0 7.3
0.0 0.0 0.0 0.0 0.0 0.0 0.0 0.0 0.0 0.0 0.0 0.0 6.2 4.3 0.0 0.0 27.9 13.8 2.7 1.6 0.9 1.6 0.8 2.1 3.6 4.5 5.3 7.9 12.1 5.3 2.9 0.0 0.0 0.0 2.5 0.1 6.1 8.3 4.2 0.0 0.0 0.0 0.0 0.4 4.0 5.3 17.7
0.0 0.0 0.0 0.0 0.0 0.0 0.0 0.0 0.0 0.0 0.0 0.0 4.8 28.1 3.8 2.6 1.1 2.2 3.4 3.9 4.1 0.0 0.7 0.0 3.3 3.9 5.4 4.1 1.5 6.4 4.1 0.0 0.0 0.0 0.0 0.0 5.4 6.9 9.4 5.9 4.1 7.3 3.7 1.7 6.2 24.7 13.4
0.0 0.0 0.0 0.0 0.0 0.0 0.0 0.0 0.0 0.0 0.0 0.0 9.7 19.3 0.0 18.9 11.5 4.5 3.5 5.4 5.4 4.7 0.2 0.1 2.8 2.6 4.4 9.7 4.0 2.4 1.2 0.1 0.0 0.0 0.0 0.0 12.7 5.4 3.8 4.0 2.0 2.6 5.7 3.1 3.8 5.2 11.3
0.0 0.0 0.0 0.0 0.0 0.0 0.0 0.0 0.0 0.0 0.0 0.0 41.4 7.2 1.3 2.0 0.1 2.3 8.9 13.2 6.5 1.3 4.5 2.0 2.9 1.0 1.4 5.9 3.6 5.1 2.7 0.3 2.6 0.0 0.0 0.0 7.1 7.0 6.3 3.3 1.2 6.7 7.5 3.8 2.7 4.1 4.9
0.0 0.0 0.0 0.0 0.0 0.0 0.0 0.0 0.0 0.0 0.0 0.0 0.3 0.0 2.0 2.4 1.6 4.8 4.1 2.2 3.2 2.4 0.3 0.7 1.3 3.0 4.0 1.7 0.3 0.0 0.5 0.8 2.0 4.0 3.0 2.6 4.8 4.8 9.3 0.8 1.7 10.6 9.7 5.8 2.7 1.0 1.1
0.0 0.0 0.0 0.0 0.0 0.0 0.0 0.0 0.0 0.0 0.0 0.0 0.0 0.1 7.8 13.3 4.5 1.9 0.2 0.6 1.7 1.3 4.5 1.1 0.3 1.7 0.0 0.0 0.0 0.0 0.2 0.1 0.1 0.6 0.9 5.5 4.2 6.3 8.2 4.6 23.0 6.1 1.3 0.5 0.2 0.4 0.4
0.0 0.0 0.0 0.0 0.0 0.0 0.0 0.0 0.0 0.0 0.0 0.0 0.0 0.0 4.7 12.1 1.2 1.7 1.6 1.7 0.0 0.5 1.9 1.1 0.6 0.0 0.0 0.5 2.6 5.6 3.0 1.8 0.7 0.1 0.3 1.0 4.6 12.0 13.8 6.4 4.2 1.4 0.8 0.5 0.5 1.1 0.6
0.0 0.0 0.0 0.0 0.0 0.0 0.0 0.0 0.0 0.0 0.0 0.0 0.0 0.0 0.9 12.0 4.1 0.4 2.9 2.8 3.9 2.4 3.4 1.8 0.0 0.0 0.0 2.6 8.3 11.7 6.2 2.0 1.4 0.4 0.0 0.3 1.8 14.6 16.6 14.3 7.4 1.1 0.3 0.0 0.0 1.3 0.4
0.0 0.0 0.0 0.0 0.0 0.0 0.0 0.0 0.0 0.0 0.0 0.0 0.0 0.0 0.2 17.0 0.0 0.4 1.5 2.4 1.4 1.1 2.8 0.0 0.4 0.1 0.3 6.6 10.5 9.0 5.3 2.2 4.9 3.0 2.1 5.1 8.4 20.6 17.6 20.9 4.6 0.1 0.5 0.2 2.5 4.0 0.4
0.0 0.0 0.0 0.0 0.0 0.0 0.0 0.0 0.0 0.0 0.0 0.0 0.0 0.0 0.0 8.2 0.0 0.0 0.0 0.0 0.0 0.4 1.5 0.9 2.4 1.4 5.7 11.9 11.1 7.6 5.9 2.8 2.4 0.4 2.5 6.0 9.8 7.7 13.2 21.3 14.2 1.0 1.0 2.0 1.5 0.5 0.2
0.0 0.0 0.0 0.0 0.0 0.0 0.0 0.0 0.0 0.0 0.0 0.0 1.3 0.0 0.0 0.9 0.0 0.0 0.0 0.0 0.0 0.0 0.0 0.3 2.3 1.5 0.3 7.3 4.7 2.5 2.9 3.6 1.3 6.7 0.1 7.2 3.7 6.6 7.5 12.0 5.8 3.9 3.7 1.0 0.3 0.3 0.5

GFSGBSN_prec_kuchsnow_198.txt.gz
Snowfall_Accumulation
0.0 0.0 0.0 0.0 0.0 0.0 0.0 0.0 0.0 0.0 0.0 0.0 0.0 0.0 0.0 0.0 0.0 0.0 0.0 0.0 0.0 0.0 0.0 0.0 0.0 0.0 0.0 0.0 0.0 0.0 0.0 0.0 0.0 0.0 0.0 0.0 0.0 0.0 0.0 0.0 0.0 0.0 0.0 0.0 0.0 0.0 0.0
0.0 0.0 0.0 0.0 0.0 0.0 0.0 0.0 0.0 0.0 0.0 0.0 0.0 0.0 0.0 0.0 0.0 0.0 0.0 0.0 0.0 0.0 0.0 0.0 0.0 0.0 0.0 0.0 0.0 0.0 0.0 0.0 0.0 0.0 0.0 0.0 0.0 0.0 0.0 0.0 0.0 0.0 0.0 0.0 0.0 0.0 0.0
0.0 0.0 0.0 0.0 0.0 0.0 0.0 0.0 0.0 0.0 0.0 0.0 0.0 0.0 0.0 0.0 0.0 0.0 0.0 0.0 0.0 0.0 0.0 0.0 0.0 0.0 0.0 0.0 0.0 0.0 0.0 0.0 0.0 0.0 0.0 0.0 0.0 0.0 0.0 0.0 0.0 0.0 0.0 0.0 0.0 0.0 0.0
0.0 0.0 0.0 0.0 0.0 0.0 0.0 0.0 0.0 0.0 0.0 0.0 0.0 0.0 0.0 0.0 0.0 0.0 0.0 0.0 0.0 0.0 0.0 0.0 0.0 0.0 0.0 0.0 0.0 0.0 0.0 0.0 0.0 0.0 0.0 0.0 0.0 0.0 0.0 0.0 0.0 0.0 0.0 0.0 0.0 0.0 0.0
0.0 0.0 0.0 0.0 0.0 0.0 0.0 0.0 0.0 0.0 0.0 0.0 0.0 0.0 0.0 0.0 0.0 0.0 0.0 0.0 0.0 0.0 0.0 0.0 0.0 0.0 0.0 0.0 0.0 0.0 0.0 0.0 0.0 0.0 0.0 0.0 0.0 0.0 0.0 0.0 0.0 0.0 0.0 0.0 0.0 0.0 0.0
0.0 0.0 0.0 0.0 0.0 0.0 0.0 0.0 0.0 0.0 0.0 0.0 0.0 0.0 0.0 0.0 0.0 0.0 0.0 0.0 0.0 0.0 0.0 0.0 0.0 0.0 0.0 0.0 0.0 0.0 0.0 0.0 0.0 0.0 0.0 0.0 0.0 0.0 0.0 0.0 0.0 0.0 0.0 0.0 0.0 0.0 0.0
0.0 0.0 0.0 0.0 0.0 0.0 0.0 0.0 0.0 0.0 0.0 0.0 0.0 0.0 0.0 0.0 0.0 0.0 0.0 0.0 0.0 0.0 0.0 0.0 0.0 0.0 0.0 0.0 0.0 0.0 0.0 0.0 0.0 0.0 0.0 0.0 0.0 0.0 0.0 0.0 0.0 0.0 0.0 0.0 0.0 0.0 0.0
0.0 0.0 0.0 0.0 0.0 0.0 0.0 0.0 0.0 0.0 0.0 0.0 0.0 0.0 0.0 0.0 0.0 0.0 0.0 0.0 0.0 0.0 0.0 0.0 0.0 0.0 0.0 0.0 0.0 0.0 0.0 0.0 0.0 0.0 0.0 0.0 0.0 0.0 0.0 0.0 0.0 0.0 0.0 0.0 0.0 0.0 0.0
0.0 0.0 0.0 0.0 0.0 0.0 0.0 0.0 0.0 0.0 0.0 0.0 0.0 0.0 0.0 0.0 0.0 0.0 0.0 0.0 0.0 0.0 0.0 0.0 0.0 0.0 0.0 0.0 0.0 0.0 0.0 0.0 0.0 0.0 0.0 0.0 0.0 0.0 0.0 0.0 0.0 0.0 0.0 0.0 0.0 0.0 0.0
0.0 0.0 0.0 0.0 0.0 0.0 0.0 0.0 0.0 0.0 0.0 0.0 0.0 0.0 0.0 0.0 0.0 0.0 0.0 0.0 0.0 0.0 0.5 0.0 0.0 0.0 0.0 0.0 0.0 0.0 0.0 0.0 0.0 0.0 0.0 0.0 0.0 0.0 0.0 0.0 0.0 0.0 0.0 0.0 0.0 0.0 0.8
0.0 0.0 0.0 0.0 0.0 0.0 0.0 0.0 0.0 0.0 0.0 0.0 0.0 0.0 0.0 0.0 0.0 0.0 0.0 0.0 0.0 0.0 32.4 0.0 0.0 0.0 0.0 0.0 0.0 0.0 0.0 0.0 0.0 0.0 0.0 0.0 0.0 0.0 0.0 0.0 0.0 0.0 0.0 0.0 0.0 0.0 0.0
0.0 0.0 0.0 0.0 0.0 0.0 0.0 0.0 0.0 0.0 0.0 0.0 0.0 0.0 0.0 0.0 0.0 0.0 0.0 0.0 0.0 1.7 32.0 0.0 0.0 0.0 0.0 0.0 0.0 0.0 0.0 0.0 0.0 0.0 0.0 0.0 0.0 0.0 0.0 0.0 0.0 0.0 0.0 0.0 0.0 0.0 2.1
0.0 0.0 0.0 0.0 0.0 0.0 0.0 0.0 0.0 0.0 0.0 0.0 0.0 0.0 0.0 0.0 0.0 0.0 0.0 0.0 20.5 38.4 0.0 0.0 0.0 0.0 0.0 0.0 0.0 0.0 0.0 0.0 0.3 0.1 0.0 0.0 0.0 0.0 0.0 0.0 0.0 0.0 0.0 2.7 3.9 4.2 0.8
0.0 0.0 0.0 0.0 0.0 0.0 0.0 0.0 0.0 0.0 0.0 0.0 0.0 0.0 0.0 0.0 0.0 0.0 0.0 2.0 57.0 2.7 0.0 0.0 0.0 0.0 0.4 0.2 0.0 0.0 0.0 0.0 0.0 0.0 0.1 0.1 1.5 0.0 0.0 0.0 0.0 0.1 0.0 0.7 7.9 6.0 1.8
0.0 0.0 0.0 0.0 0.0 0.0 0.0 0.0 0.0 0.0 0.0 0.0 0.0 0.0 0.0 0.0 0.0 0.0 0.0 49.8 16.2 0.6 0.0 0.2 0.0 0.0 0.8 0.5 0.7 0.6 0.0 0.2 0.0 0.2 1.8 1.3 3.0 0.0 0.0 0.0 0.0 0.0 0.0 0.0 3.1 0.9 5.7
0.0 0.0 0.0 0.0 0.0 0.0 0.0 0.0 0.0 0.0 0.0 0.0 0.0 0.0 0.0 0.0 0.0 0.0 13.8 27.1 4.6 0.0 0.0 0.1 5.3 3.4 5.7 1.3 2.7 1.2 0.6 0.0 0.0 0.0 0.0 4.0 12.5 0.0 0.0 0.0 0.0 0.0 0.0 1.5 4.2 22.7 17.6
0.0 0.0 0.0 0.0 0.0 0.0 0.0 0.0 0.0 0.0 0.0 0.0 0.0 0.7 0.0 0.0 0.0 1.2 46.0 13.1 1.1 0.0 0.0 1.6 7.7 7.7 3.8 5.6 2.9 4.0 2.0 0.0 0.0 0.0 0.0 0.5 8.2 0.1 0.0 0.0 0.1 0.0 0.0 0.2 0.2 3.4 14.3
0.0 0.0 0.0 0.0 0.0 0.0 0.0 0.0 0.0 0.0 0.0 0.0 0.0 17.2 0.0 0.0 10.1 23.7 18.2 3.6 0.0 0.0 0.0 0.8 2.1 4.6 7.3 5.7 7.7 10.6 5.8 0.3 0.0 0.4 1.1 0.6 5.0 4.7 0.8 0.0 0.0 0.0 1.2 2.3 15.7 13.6 12.1
0.0 0.0 0.0 0.0 0.0 0.0 0.0 0.0 0.0 0.0 0.0 0.0 6.2 4.3 0.0 0.0 28.4 14.1 2.7 1.6 0.9 1.6 0.8 2.2 3.9 4.5 5.3 8.1 12.9 5.3 2.9 0.0 0.0 0.0 2.8 0.1 7.5 9.3 4.2 0.0 0.0 0.6 0.1 2.3 9.9 12.7 23.7
0.0 0.0 0.0 0.0 0.0 0.0 0.0 0.0 0.0 0.0 0.0 0.0 4.8 28.4 3.8 2.6 1.1 2.2 3.4 3.9 4.2 0.0 0.7 0.0 3.3 3.9 5.5 4.1 1.5 6.4 4.1 0.0 0.0 0.0 0.0 0.0 5.6 7.5 10.1 5.9 4.1 7.5 3.8 1.7 7.0 29.6 17.8
0.0 0.0 0.0 0.0 0.0 0.0 0.0 0.0 0.0 0.0 0.0 0.0 9.7 19.5 0.0 19.3 11.7 4.5 3.5 5.4 5.4 4.7 0.2 0.1 2.8 2.6 4.4 10.1 4.0 2.5 1.2 0.1 0.0 0.0 0.0 0.0 12.9 5.4 3.8 4.0 2.0 2.6 5.7 3.1 3.8 5.2 12.5
0.0 0.0 0.0 0.0 0.0 0.0 0.0 0.0 0.0 0.0 0.0 0.0 41.7 7.2 1.3 2.0 0.1 2.3 9.1 13.2 6.5 1.3 4.7 2.0 3.0 1.0 1.4 6.4 3.7 5.1 2.7 0.3 2.6 0.0 0.0 0.0 7.5 7.0 6.3 3.3 1.2 6.7 7.5 3.8 2.7 4.1 4.9
0.0 0.0 0.0 0.0 0.0 0.0 0.0 0.0 0.0 0.0 0.0 0.0 0.3 0.0 2.0 2.4 1.7 5.0 4.1 2.2 3.3 2.4 0.3 0.7 1.5 3.9 4.5 2.0 0.3 0.2 0.5 0.8 2.0 4.0 3.0 2.6 4.8 4.8 9.3 0.8 1.7 10.6 9.7 5.8 2.7 1.0 1.1
0.0 0.0 0.0 0.0 0.0 0.0 0.0 0.0 0.0 0.0 0.0 0.0 0.0 0.1 8.8 13.8 4.6 2.0 0.2 0.6 1.7 1.3 4.9 1.1 0.3 1.7 0.0 0.0 0.0 0.0 0.2 0.1 0.1 0.6 0.9 5.5 4.2 6.3 8.2 4.6 23.2 6.1 1.3 0.5 0.2 0.4 0.4
0.0 0.0 0.0 0.0 0.0 0.0 0.0 0.0 0.0 0.0 0.0 0.0 0.0 0.0 4.9 12.8 1.2 1.7 1.6 2.0 0.0 0.5 1.9 1.1 0.6 0.0 0.0 0.5 2.6 5.6 3.0 1.8 0.7 0.1 0.3 1.0 4.7 12.5 14.2 6.4 4.2 1.4 0.8 0.5 0.5 1.1 0.6
0.0 0.0 0.0 0.0 0.0 0.0 0.0 0.0 0.0 0.0 0.0 0.0 0.0 0.0 0.9 12.9 4.2 0.4 3.8 2.9 4.6 2.5 3.6 1.8 0.0 0.0 0.0 2.6 8.6 11.9 6.2 2.0 1.4 0.4 0.0 0.3 1.8 15.7 17.3 15.0 7.6 1.2 0.3 0.0 0.0 1.3 0.4
0.0 0.0 0.0 0.0 0.0 0.0 0.0 0.0 0.0 0.0 0.0 0.0 0.0 0.0 0.2 17.7 0.0 0.4 1.7 2.9 1.6 1.3 2.9 0.0 0.4 0.1 0.3 7.1 11.5 9.7 5.8 2.3 5.6 3.7 2.4 5.5 8.9 24.9 21.5 24.6 6.1 0.8 0.6 0.2 4.3 5.7 0.8
0.0 0.0 0.0 0.0 0.0 0.0 0.0 0.0 0.0 0.0 0.0 0.0 0.0 0.0 0.0 8.2 0.0 0.0 0.0 0.0 0.0 0.5 2.0 0.9 2.4 1.4 6.1 13.3 12.3 9.1 8.0 5.0 3.5 1.0 2.5 6.3 10.4 9.3 13.7 22.9 20.6 1.2 1.0 3.5 2.9 0.5 0.5
0.0 0.0 0.0 0.0 0.0 0.0 0.0 0.0 0.0 0.0 0.0 0.0 2.1 0.0 0.0 0.9 0.0 0.0 0.0 0.0 0.0 0.0 0.0 0.3 2.6 1.5 0.5 8.0 6.0 3.2 3.6 3.8 1.4 7.1 0.1 7.4 3.8 6.6 7.5 12.2 5.8 3.9 3.7 1.0 0.4 1.2 1.0

GFSGBSN_prec_kuchsnow_201.txt.gz
Snowfall_Accumulation
0.0 0.0 0.0 0.0 0.0 0.0 0.0 0.0 0.0 0.0 0.0 0.0 0.0 0.0 0.0 0.0 0.0 0.0 0.0 0.0 0.0 0.0 0.0 0.0 0.0 0.0 0.0 0.0 0.0 0.0 0.0 0.0 0.0 0.0 0.0 0.0 0.0 0.0 0.0 0.0 0.0 0.0 0.0 0.0 0.0 0.0 0.0
0.0 0.0 0.0 0.0 0.0 0.0 0.0 0.0 0.0 0.0 0.0 0.0 0.0 0.0 0.0 0.0 0.0 0.0 0.0 0.0 0.0 0.0 0.0 0.0 0.0 0.0 0.0 0.0 0.0 0.0 0.0 0.0 0.0 0.0 0.0 0.0 0.0 0.0 0.0 0.0 0.0 0.0 0.0 0.0 0.0 0.0 0.0
0.0 0.0 0.0 0.0 0.0 0.0 0.0 0.0 0.0 0.0 0.0 0.0 0.0 0.0 0.0 0.0 0.0 0.0 0.0 0.0 0.0 0.0 0.0 0.0 0.0 0.0 0.0 0.0 0.0 0.0 0.0 0.0 0.0 0.0 0.0 0.0 0.0 0.0 0.0 0.0 0.0 0.0 0.0 0.0 0.0 0.0 0.0
0.0 0.0 0.0 0.0 0.0 0.0 0.0 0.0 0.0 0.0 0.0 0.0 0.0 0.0 0.0 0.0 0.0 0.0 0.0 0.0 0.0 0.0 0.0 0.0 0.0 0.0 0.0 0.0 0.0 0.0 0.0 0.0 0.0 0.0 0.0 0.0 0.0 0.0 0.0 0.0 0.0 0.0 0.0 0.0 0.0 0.0 0.0
0.0 0.0 0.0 0.0 0.0 0.0 0.0 0.0 0.0 0.0 0.0 0.0 0.0 0.0 0.0 0.0 0.0 0.0 0.0 0.0 0.0 0.0 0.0 0.0 0.0 0.0 0.0 0.0 0.0 0.0 0.0 0.0 0.0 0.0 0.0 0.0 0.0 0.0 0.0 0.0 0.0 0.0 0.0 0.0 0.0 0.0 0.0
0.0 0.0 0.0 0.0 0.0 0.0 0.0 0.0 0.0 0.0 0.0 0.0 0.0 0.0 0.0 0.0 0.0 0.0 0.0 0.0 0.0 0.0 0.0 0.0 0.0 0.0 0.0 0.0 0.0 0.0 0.0 0.0 0.0 0.0 0.0 0.0 0.0 0.0 0.0 0.0 0.0 0.0 0.0 0.0 0.0 0.0 0.0
0.0 0.0 0.0 0.0 0.0 0.0 0.0 0.0 0.0 0.0 0.0 0.0 0.0 0.0 0.0 0.0 0.0 0.0 0.0 0.0 0.0 0.0 0.0 0.0 0.0 0.0 0.0 0.0 0.0 0.0 0.0 0.0 0.0 0.0 0.0 0.0 0.0 0.0 0.0 0.0 0.0 0.0 0.0 0.0 0.0 0.0 0.0
0.0 0.0 0.0 0.0 0.0 0.0 0.0 0.0 0.0 0.0 0.0 0.0 0.0 0.0 0.0 0.0 0.0 0.0 0.0 0.0 0.0 0.0 0.0 0.0 0.0 0.0 0.0 0.0 0.0 0.0 0.0 0.0 0.0 0.0 0.0 0.0 0.0 0.0 0.0 0.0 0.0 0.0 0.0 0.0 0.0 0.0 0.0
0.0 0.0 0.0 0.0 0.0 0.0 0.0 0.0 0.0 0.0 0.0 0.0 0.0 0.0 0.0 0.0 0.0 0.0 0.0 0.0 0.0 0.0 0.0 0.0 0.0 0.0 0.0 0.0 0.0 0.0 0.0 0.0 0.0 0.0 0.0 0.0 0.0 0.0 0.0 0.0 0.0 0.0 0.0 0.0 0.0 0.0 0.0
0.0 0.0 0.0 0.0 0.0 0.0 0.0 0.0 0.0 0.0 0.0 0.0 0.0 0.0 0.0 0.0 0.0 0.0 0.0 0.0 0.0 0.0 0.5 0.0 0.0 0.0 0.0 0.0 0.0 0.0 0.0 0.0 0.0 0.0 0.0 0.0 0.0 0.0 0.0 0.0 0.0 0.0 0.0 0.0 0.0 0.0 0.8
0.0 0.0 0.0 0.0 0.0 0.0 0.0 0.0 0.0 0.0 0.0 0.0 0.0 0.0 0.0 0.0 0.0 0.0 0.0 0.0 0.0 0.0 41.4 0.0 0.0 0.0 0.0 0.0 0.0 0.0 0.0 0.0 0.0 0.0 0.0 0.0 0.0 0.0 0.0 0.0 0.0 0.0 0.0 0.0 0.0 0.0 0.0
0.0 0.0 0.0 0.0 0.0 0.0 0.0 0.0 0.0 0.0 0.0 0.0 0.0 0.0 0.0 0.0 0.0 0.0 0.0 0.0 0.0 1.7 39.8 0.0 0.0 0.0 0.0 0.0 0.0 0.0 0.0 0.0 0.0 0.0 0.0 0.0 0.0 0.0 0.0 0.0 0.0 0.0 0.0 0.0 0.0 0.0 2.1
0.0 0.0 0.0 0.0 0.0 0.0 0.0 0.0 0.0 0.0 0.0 0.0 0.0 0.0 0.0 0.0 0.0 0.0 0.0 0.0 23.1 45.1 0.0 0.0 0.0 0.0 0.0 0.0 0.0 0.0 0.0 0.0 0.3 0.1 0.0 0.0 0.0 0.0 0.0 0.0 0.0 0.0 0.0 2.9 4.1 4.3 0.8
0.0 0.0 0.0 0.0 0.0 0.0 0.0 0.0 0.0 0.0 0.0 0.0 0.0 0.0 0.0 0.0 0.0 0.0 0.0 2.0 62.3 3.5 0.0 0.0 0.0 0.0 0.4 0.2 0.0 0.0 0.0 0.0 0.0 0.0 0.1 0.1 1.5 0.0 0.0 0.0 0.0 0.1 0.0 0.7 9.2 6.3 1.8
0.0 0.0 0.0 0.0 0.0 0.0 0.0 0.0 0.0 0.0 0.0 0.0 0.0 0.0 0.0 0.0 0.0 0.0 0.0 53.0 17.9 0.6 0.0 0.2 0.0 0.0 0.8 0.5 0.7 0.6 0.0 0.2 0.0 0.2 2.5 3.0 3.8 0.0 0.0 0.0 0.0 0.0 0.0 0.0 3.1 0.9 5.7
0.0 0.0 0.0 0.0 0.0 0.0 0.0 0.0 0.0 0.0 0.0 0.0 0.0 0.0 0.0 0.0 0.0 0.0 15.1 28.8 4.8 0.0 0.0 0.1 6.4 3.8 6.3 1.3 2.7 1.5 0.6 0.0 0.0 0.0 0.0 6.0 14.4 0.0 0.0 0.0 0.0 0.0 0.0 1.5 4.2 24.6 20.0
0.0 0.0 0.0 0.0 0.0 0.0 0.0 0.0 0.0 0.0 0.0 0.0 0.0 0.7 0.0 0.0 0.0 1.2 46.2 13.1 1.1 0.0 0.0 1.8 7.9 8.5 4.1 5.8 3.6 4.7 2.4 0.0 0.0 0.0 0.0 0.6 9.1 0.1 0.0 0.0 0.1 0.5 1.0 0.2 2.2 9.2 21.8
0.0 0.0 0.0 0.0 0.0 0.0 0.0 0.0 0.0 0.0 0.0 0.0 0.0 17.2 0.0 0.0 10.1 23.7 18.3 3.7 0.0 0.0 0.0 0.8 2.1 4.6 7.3 5.7 7.7 11.3 6.2 0.3 0.0 0.4 1.4 0.6 5.7 5.3 0.8 0.0 0.0 0.0 2.8 3.6 15.7 17.9 15.2
0.0 0.0 0.0 0.0 0.0 0.0 0.0 0.0 0.0 0.0 0.0 0.0 6.3 4.3 0.0 0.0 28.7 14.1 2.7 1.6 0.9 1.6 0.8 2.2 3.9 4.5 5.3 8.2 13.2 5.3 2.9 0.0 0.0 0.0 2.8 0.2 8.0 10.2 4.2 0.0 0.0 1.2 0.9 3.4 11.4 14.7 25.8
0.0 0.0 0.0 0.0 0.0 0.0 0.0 0.0 0.0 0.0 0.0 0.0 4.8 28.4 3.8 2.6 1.1 2.2 3.4 3.9 4.2 0.0 0.7 0.0 3.3 3.9 5.6 4.3 1.6 6.4 4.1 0.0 0.0 0.0 0.0 0.0 5.6 7.5 10.1 5.9 4.1 7.5 3.8 1.7 7.4 30.6 18.4
0.0 0.0 0.0 0.0 0.0 0.0 0.0 0.0 0.0 0.0 0.0 0.0 9.7 19.5 0.0 19.3 11.7 4.5 3.6 5.4 5.4 4.7 0.2 0.1 2.8 2.6 4.6 10.5 4.3 2.5 1.2 0.1 0.0 0.0 0.0 0.0 12.9 5.4 3.8 4.0 2.0 2.6 5.7 3.1 4.0 5.3 12.5
0.0 0.0 0.0 0.0 0.0 0.0 0.0 0.0 0.0 0.0 0.0 0.0 42.2 7.2 1.3 2.0 0.1 2.3 9.1 13.2 6.6 1.3 4.7 2.0 3.0 1.0 1.4 6.4 4.0 5.3 2.8 0.4 2.6 0.0 0.2 0.1 7.5 7.0 6.7 3.3 1.2 6.7 7.5 3.8 2.7 4.1 5.0
0.0 0.0 0.0 0.0 0.0 0.0 0.0 0.0 0.0 0.0 0.0 0.0 0.3 0.0 2.0 2.4 1.7 5.3 4.1 2.2 3.3 2.5 0.3 0.7 1.5 4.0 4.5 2.0 0.3 0.2 0.5 0.8 2.0 4.1 3.1 2.8 5.2 5.0 9.4 0.8 1.7 10.6 9.7 5.8 2.7 1.0 1.1
0.0 0.0 0.0 0.0 0.0 0.0 0.0 0.0 0.0 0.0 0.0 0.0 0.0 0.1 9.3 14.3 4.6 2.0 0.2 0.6 1.7 1.3 4.9 1.1 0.3 1.9 0.0 0.0 0.0 0.0 0.2 0.1 0.1 0.8 1.0 5.7 4.2 6.3 8.2 4.6 23.2 6.1 1.3 0.5 0.2 0.4 0.4
0.0 0.0 0.0 0.0 0.0 0.0 0.0 0.0 0.0 0.0 0.0 0.0 0.0 0.0 5.3 12.8 1.2 1.7 1.9 2.1 0.0 0.5 1.9 1.1 0.6 0.0 0.0 0.5 2.6 5.6 3.0 1.8 0.7 0.1 0.3 1.0 4.7 12.7 14.2 6.4 4.2 1.4 0.8 0.5 0.5 1.1 0.6
0.0 0.0 0.0 0.0 0.0 0.0 0.0 0.0 0.0 0.0 0.0 0.0 0.0 0.0 1.3 13.4 4.2 0.4 3.8 2.9 4.6 2.5 3.6 1.8 0.0 0.0 0.0 2.7 8.8 12.0 6.2 2.0 1.4 0.4 0.0 0.3 1.9 16.3 17.7 15.6 7.6 1.2 0.3 0.0 0.0 1.4 0.4
0.0 0.0 0.0 0.0 0.0 0.0 0.0 0.0 0.0 0.0 0.0 0.0 0.0 0.0 0.9 19.0 0.0 0.4 2.1 3.5 1.8 1.9 2.9 0.4 0.4 0.1 0.3 7.1 11.5 9.7 5.8 2.3 5.6 3.7 2.4 5.5 8.9 24.9 21.5 26.8 8.0 1.5 0.6 0.2 4.6 5.7 0.8
0.0 0.0 0.0 0.0 0.0 0.0 0.0 0.0 0.0 0.0 0.0 0.0 0.0 0.0 0.0 9.1 0.2 0.0 0.0 0.1 0.2 0.5 4.1 1.5 2.4 1.8 6.5 13.7 12.3 9.4 8.0 5.0 3.5 1.0 3.3 6.7 10.8 10.3 14.3 23.5 20.6 1.2 1.0 3.5 2.9 0.5 0.5
0.0 0.0 0.0 0.0 0.0 0.0 0.0 0.0 0.0 0.0 0.0 0.0 2.1 0.0 0.0 0.9 0.0 0.0 0.0 0.0 0.0 0.0 0.0 0.4 2.6 2.1 1.1 8.5 6.6 3.2 4.3 5.2 2.4 7.8 0.1 7.9 3.8 6.6 7.5 12.2 5.8 3.9 3.7 1.0 0.4 1.2 1.0

GFSGBSN_prec_kuchsnow_204.txt.gz
Snowfall_Accumulation
0.0 0.0 0.0 0.0 0.0 0.0 0.0 0.0 0.0 0.0 0.0 0.0 0.0 0.0 0.0 0.0 0.0 0.0 0.0 0.0 0.0 0.0 0.0 0.0 0.0 0.0 0.0 0.0 0.0 0.0 0.0 0.0 0.0 0.0 0.0 0.0 0.0 0.0 0.0 0.0 0.0 0.0 0.0 0.0 0.0 0.0 0.0
0.0 0.0 0.0 0.0 0.0 0.0 0.0 0.0 0.0 0.0 0.0 0.0 0.0 0.0 0.0 0.0 0.0 0.0 0.0 0.0 0.0 0.0 0.0 0.0 0.0 0.0 0.0 0.0 0.0 0.0 0.0 0.0 0.0 0.0 0.0 0.0 0.0 0.0 0.0 0.0 0.0 0.0 0.0 0.0 0.0 0.0 0.0
0.0 0.0 0.0 0.0 0.0 0.0 0.0 0.0 0.0 0.0 0.0 0.0 0.0 0.0 0.0 0.0 0.0 0.0 0.0 0.0 0.0 0.0 0.0 0.0 0.0 0.0 0.0 0.0 0.0 0.0 0.0 0.0 0.0 0.0 0.0 0.0 0.0 0.0 0.0 0.0 0.0 0.0 0.0 0.0 0.0 0.0 0.0
0.0 0.0 0.0 0.0 0.0 0.0 0.0 0.0 0.0 0.0 0.0 0.0 0.0 0.0 0.0 0.0 0.0 0.0 0.0 0.0 0.0 0.0 0.0 0.0 0.0 0.0 0.0 0.0 0.0 0.0 0.0 0.0 0.0 0.0 0.0 0.0 0.0 0.0 0.0 0.0 0.0 0.0 0.0 0.0 0.0 0.0 0.0
0.0 0.0 0.0 0.0 0.0 0.0 0.0 0.0 0.0 0.0 0.0 0.0 0.0 0.0 0.0 0.0 0.0 0.0 0.0 0.0 0.0 0.0 0.0 0.0 0.0 0.0 0.0 0.0 0.0 0.0 0.0 0.0 0.0 0.0 0.0 0.0 0.0 0.0 0.0 0.0 0.0 0.0 0.0 0.0 0.0 0.0 0.0
0.0 0.0 0.0 0.0 0.0 0.0 0.0 0.0 0.0 0.0 0.0 0.0 0.0 0.0 0.0 0.0 0.0 0.0 0.0 0.0 0.0 0.0 0.0 0.0 0.0 0.0 0.0 0.0 0.0 0.0 0.0 0.0 0.0 0.0 0.0 0.0 0.0 0.0 0.0 0.0 0.0 0.0 0.0 0.0 0.0 0.0 0.0
0.0 0.0 0.0 0.0 0.0 0.0 0.0 0.0 0.0 0.0 0.0 0.0 0.0 0.0 0.0 0.0 0.0 0.0 0.0 0.0 0.0 0.0 0.0 0.0 0.0 0.0 0.0 0.0 0.0 0.0 0.0 0.0 0.0 0.0 0.0 0.0 0.0 0.0 0.0 0.0 0.0 0.0 0.0 0.0 0.0 0.0 0.0
0.0 0.0 0.0 0.0 0.0 0.0 0.0 0.0 0.0 0.0 0.0 0.0 0.0 0.0 0.0 0.0 0.0 0.0 0.0 0.0 0.0 0.0 0.0 0.0 0.0 0.0 0.0 0.0 0.0 0.0 0.0 0.0 0.0 0.0 0.0 0.0 0.0 0.0 0.0 0.0 0.0 0.0 0.0 0.0 0.0 0.0 0.0
0.0 0.0 0.0 0.0 0.0 0.0 0.0 0.0 0.0 0.0 0.0 0.0 0.0 0.0 0.0 0.0 0.0 0.0 0.0 0.0 0.0 0.0 0.0 0.0 0.0 0.0 0.0 0.0 0.0 0.0 0.0 0.0 0.0 0.0 0.0 0.0 0.0 0.0 0.0 0.0 0.0 0.0 0.0 0.0 0.0 0.0 0.0
0.0 0.0 0.0 0.0 0.0 0.0 0.0 0.0 0.0 0.0 0.0 0.0 0.0 0.0 0.0 0.0 0.0 0.0 0.0 0.0 0.0 0.0 0.5 0.0 0.0 0.0 0.0 0.0 0.0 0.0 0.0 0.0 0.0 0.0 0.0 0.0 0.0 0.0 0.0 0.0 0.0 0.0 0.0 0.0 0.0 0.0 0.8
0.0 0.0 0.0 0.0 0.0 0.0 0.0 0.0 0.0 0.0 0.0 0.0 0.0 0.0 0.0 0.0 0.0 0.0 0.0 0.0 0.0 0.0 52.7 0.0 0.0 0.0 0.0 0.0 0.0 0.0 0.0 0.0 0.0 0.0 0.0 0.0 0.0 0.0 0.0 0.0 0.0 0.0 0.0 0.0 0.0 0.0 0.0
0.0 0.0 0.0 0.0 0.0 0.0 0.0 0.0 0.0 0.0 0.0 0.0 0.0 0.0 0.0 0.0 0.0 0.0 0.0 0.0 0.0 1.7 47.0 0.0 0.0 0.0 0.0 0.0 0.0 0.0 0.0 0.0 0.0 0.0 0.0 0.0 0.0 0.0 0.0 0.0 0.0 0.0 0.0 0.0 0.0 0.0 2.1
0.0 0.0 0.0 0.0 0.0 0.0 0.0 0.0 0.0 0.0 0.0 0.0 0.0 0.0 0.0 0.0 0.0 0.0 0.0 0.0 25.6 50.5 0.0 0.0 0.0 0.0 0.0 0.0 0.0 0.0 0.0 0.0 0.3 0.1 0.0 0.0 0.0 0.0 0.0 0.0 0.0 0.0 0.0 3.0 4.3 4.4 0.8
0.0 0.0 0.0 0.0 0.0 0.0 0.0 0.0 0.0 0.0 0.0 0.0 0.0 0.0 0.0 0.0 0.0 0.0 0.0 2.0 67.9 4.5 0.0 0.0 0.0 0.0 0.4 0.2 0.0 0.0 0.0 0.0 0.0 0.0 0.1 0.1 1.5 0.0 0.0 0.0 0.0 0.1 0.0 0.7 10.4 6.9 1.8
0.0 0.0 0.0 0.0 0.0 0.0 0.0 0.0 0.0 0.0 0.0 0.0 0.0 0.0 0.0 0.0 0.0 0.0 1.1 56.6 19.7 0.8 0.0 0.2 0.0 0.2 0.8 0.5 0.7 0.6 0.0 0.2 0.0 0.2 2.5 4.0 4.5 0.0 0.0 0.0 0.0 0.0 0.0 0.0 3.1 0.9 6.2
0.0 0.0 0.0 0.0 0.0 0.0 0.0 0.0 0.0 0.0 0.0 0.0 0.0 0.0 0.0 0.0 0.0 0.0 16.4 30.5 5.1 0.0 0.0 0.1 7.1 4.3 7.0 1.9 3.8 2.3 1.1 0.0 0.0 0.0 0.0 7.0 15.9 0.0 0.0 0.0 0.0 0.0 0.0 1.5 4.2 27.1 23.2
0.0 0.0 0.0 0.0 0.0 0.0 0.0 0.0 0.0 0.0 0.0 0.0 0.0 0.7 0.0 0.0 0.0 1.2 46.6 13.1 1.1 0.0 0.0 2.5 8.7 9.3 4.4 5.8 3.9 5.5 3.1 0.0 0.0 0.0 0.0 0.6 9.1 0.1 0.0 0.0 0.2 0.6 1.7 1.0 3.5 12.1 25.8
0.0 0.0 0.0 0.0 0.0 0.0 0.0 0.0 0.0 0.0 0.0 0.0 0.0 17.2 0.0 0.0 10.1 23.8 18.4 3.7 0.0 0.0 0.0 0.8 2.1 4.6 7.3 5.7 7.7 11.5 6.2 0.3 0.0 0.4 1.5 0.7 6.7 6.0 0.8 0.0 0.0 0.0 2.8 3.6 16.9 19.7 16.7
0.0 0.0 0.0 0.0 0.0 0.0 0.0 0.0 0.0 0.0 0.0 0.0 6.3 4.3 0.0 0.0 29.0 14.1 2.7 1.6 0.9 1.6 0.8 2.2 3.9 4.5 5.4 8.2 13.2 5.4 2.9 0.0 0.0 0.0 2.8 0.3 8.9 11.3 4.2 0.0 0.0 1.2 0.9 3.4 12.3 15.8 27.0
0.0 0.0 0.0 0.0 0.0 0.0 0.0 0.0 0.0 0.0 0.0 0.0 4.8 28.4 3.8 2.6 1.2 2.2 3.4 3.9 4.2 0.0 0.7 0.0 3.3 3.9 5.7 4.3 1.6 6.4 4.2 0.0 0.0 0.0 0.0 0.0 5.6 7.5 10.1 5.9 4.1 7.6 3.9 2.0 8.0 31.4 18.4
0.0 0.0 0.0 0.0 0.0 0.0 0.0 0.0 0.0 0.0 0.0 0.0 10.0 19.6 0.0 19.4 11.7 4.6 3.7 5.4 5.4 4.8 0.2 0.1 2.8 2.6 4.6 10.7 4.4 2.5 1.2 0.1 0.0 0.0 0.0 0.0 14.0 5.5 3.8 4.0 2.0 2.6 5.7 3.2 4.0 5.3 12.5
0.0 0.0 0.0 0.0 0.0 0.0 0.0 0.0 0.0 0.0 0.0 0.0 42.7 7.4 1.3 2.0 0.1 2.3 9.3 13.3 6.6 1.3 4.8 2.0 3.0 1.0 1.4 6.4 4.0 5.3 2.8 0.4 2.6 0.0 0.2 0.1 7.5 7.0 6.9 3.3 1.2 6.7 7.5 3.8 2.7 4.1 5.0
0.0 0.0 0.0 0.0 0.0 0.0 0.0 0.0 0.0 0.0 0.0 0.0 0.3 0.0 2.2 2.4 1.7 5.3 4.1 2.2 3.3 2.5 0.3 0.7 1.6 4.1 4.5 2.0 0.3 0.2 0.5 0.8 2.0 4.1 3.1 3.2 6.3 6.1 10.4 0.8 1.7 10.7 9.7 5.8 2.7 1.0 1.1
0.0 0.0 0.0 0.0 0.0 0.0 0.0 0.0 0.0 0.0 0.0 0.0 0.0 0.1 9.7 15.0 4.6 2.0 0.2 0.6 1.7 1.3 5.0 1.1 0.3 1.9 0.0 0.0 0.0 0.0 0.2 0.1 0.1 0.8 1.0 5.7 5.4 7.2 8.7 4.6 23.5 6.1 1.3 0.5 0.2 0.4 0.4
0.0 0.0 0.0 0.0 0.0 0.0 0.0 0.0 0.0 0.0 0.0 0.0 0.0 0.0 5.5 12.9 1.2 1.7 1.9 2.4 0.0 0.5 1.9 1.1 0.6 0.0 0.0 0.5 3.1 5.6 3.0 1.8 0.7 0.1 0.3 1.0 4.7 14.0 14.8 6.4 4.2 1.4 0.8 0.5 0.5 1.1 0.6
0.0 0.0 0.0 0.0 0.0 0.0 0.0 0.0 0.0 0.0 0.0 0.0 0.0 0.0 1.7 14.0 4.2 0.4 3.8 2.9 4.6 2.5 3.6 1.8 0.0 0.0 0.0 3.1 9.6 12.2 6.2 2.0 1.4 0.4 0.0 0.3 1.9 16.3 18.4 16.4 7.6 1.2 0.3 0.0 0.0 1.4 0.4
0.0 0.0 0.0 0.0 0.0 0.0 0.0 0.0 0.0 0.0 0.0 0.0 0.0 0.0 1.6 20.8 0.0 0.4 2.1 3.6 1.9 2.1 3.0 0.4 0.4 0.1 0.3 7.9 11.8 9.7 5.8 2.3 5.6 3.7 2.4 5.5 8.9 25.1 21.8 27.6 8.4 1.5 0.6 0.2 5.0 5.7 0.8
0.0 0.0 0.0 0.0 0.0 0.0 0.0 0.0 0.0 0.0 0.0 0.0 0.0 0.0 0.0 9.6 0.3 0.0 0.0 0.1 0.2 0.5 4.1 1.5 4.6 2.4 7.2 14.5 12.4 9.4 8.0 5.0 3.5 1.0 4.4 7.9 11.4 11.1 14.6 23.7 20.8 1.2 1.0 3.5 2.9 0.5 0.5
0.0 0.0 0.0 0.0 0.0 0.0 0.0 0.0 0.0 0.0 0.0 0.0 2.1 0.0 0.0 0.9 0.0 0.0 0.0 0.0 0.0 0.0 0.2 0.7 2.9 2.1 2.1 9.1 6.6 3.2 4.3 5.2 2.4 9.1 0.3 7.9 3.8 6.6 7.5 12.2 5.8 3.9 3.7 1.0 0.4 1.2 1.0